Weather Roundup
Issued by NWS

Home | Current Version | Previous Version | Text Only | Print | Product List | Glossary On
Versions: 1 2 3 4 5 6 7 8 9 10 11 12 13 14 15 16 17 18 19 20 21 22 23 24 25 26 27 28 29 30 31 32 33 34 35 36 37 38 39 40 41 42 43 44 45 46 47 48 49 50
000
NZUS93 KARX 050010
HRRWXR

CURRENT HOURLY OBSERVATIONS ACROSS
MUCH OF THE UPPER MISSISSIPPI VALLEY
NATIONAL WEATHER SERVICE LA CROSSE WI
700 PM CDT WED MAY 04 2016


...SOUTHEAST MINNESOTA...


CITY           SKY/WX    TMP DP  RH WIND       PRES   REMARKS
ROCHESTER      SUNNY     61  28  28 N17       29.93R
ROCHESTER/MAYO FAIR      63  26  25 NW10G23   29.92S
WINONA         SUNNY     63  25  23 N9G18     29.91R
AUSTIN         SUNNY     63  25  23 N14G20    29.92S
ALBERT LEA     SUNNY     64  21  19 N13G21    29.93S
DODGE CENTER   SUNNY     61  27  27 N14G21    29.93S
PRESTON        SUNNY     59  26  27 N13G23    29.91S
OWATONNA       SUNNY     63  19  19 N16G22    29.94R
FARIBAULT      SUNNY     64  25  22 N13G22    29.94S
$$

...ELSEWHERE IN MINNESOTA...


CITY           SKY/WX    TMP DP  RH WIND       PRES   REMARKS
MINNEAPOLIS    SUNNY     65  24  21 N10       29.94S
INTNL FALLS    SUNNY     60  19  20 E3        29.97S
DULUTH         SUNNY     52  26  36 SE10      29.96S
RED WING       SUNNY     64  19  17 NE12G17   29.92R
REDWOOD FALLS  SUNNY     68  24  19 N10G18    29.96S
MANKATO        SUNNY     66  21  18 N14G20    29.95R
WORTHINGTON    SUNNY     65  31  28 N20       29.98F
FAIRMONT       SUNNY     66  30  26 N18       29.94S
$$

...SOUTHWEST WISCONSIN...


CITY           SKY/WX    TMP DP  RH WIND       PRES   REMARKS
LA CROSSE      SUNNY     63  22  20 N16       29.89R
PRAIRIE DU CHI SUNNY     62  24  23 NW14G22   29.87R
BOSCOBEL       SUNNY     63  24  22 NW12G22   29.87R
LONE ROCK      SUNNY     61  22  22 N15G25    29.86R
PLATTEVILLE    SUNNY     60  29  31 N20G29    29.85S
FORT MC COY    SUNNY     60  21  22 N14G20    29.90R
CAMP DOUGLAS   MOSUNNY   57  28  33 N15G23    29.88R
MAUSTON-NEW LI CLEAR     59  28  30 N12G20    29.87R
VIROQUA        FAIR      59  22  23 N14G23    29.88R
WIS DELLS      SUNNY     59  22  24 N15G23    29.85R
$$

...ELSEWHERE IN WISCONSIN...


CITY           SKY/WX    TMP DP  RH WIND       PRES   REMARKS
MILWAUKEE      CLOUDY    43  35  73 N17G24    29.86R
MADISON        MOSUNNY   56  32  40 N15       29.83R
GREEN BAY      PTCLDY    50  35  56 NE18G24   29.89R
EAU CLAIRE     SUNNY     61  18  18 N14       29.92R
BLACK RVR FLS  FAIR      61  17  18 NE10G18   29.90R
MEDFORD        SUNNY     51  32  47 N13       29.92R
WAUSAU         SUNNY     53  30  41 N15G22    29.90R
WIS RAPIDS     SUNNY     55  29  36 N18G28    29.91R
MARSHFIELD     SUNNY     55  29  36 N18G25    29.90R
RICE LAKE      SUNNY     61  17  18 N13       29.95R
$$

...NORTHEAST IOWA...


CITY           SKY/WX    TMP DP  RH WIND       PRES   REMARKS
WATERLOO       SUNNY     63  29  27 N23G29    29.88F
DUBUQUE        MOSUNNY   59  32  36 N17       29.86S
DECORAH        SUNNY     61  28  29 N14G21    29.88S
MASON CITY     SUNNY     64  30  27 N20       29.93S
CHARLES CITY   SUNNY     64  25  22 N18G25    29.91R
OELWEIN        SUNNY     63  30  29 N17       29.89S
$$

...ELSEWHERE IN IOWA...


CITY           SKY/WX    TMP DP  RH WIND       PRES   REMARKS
DES MOINES     MOSUNNY   67  31  26 NW14G21   29.94S
IOWA CITY      SUNNY     64  30  27 N15G26    29.89S
FORT DODGE     SUNNY     64  36  34 NW10G20   29.95F
MARSHALLTOWN   SUNNY     65  32  29 N14       29.90F
CEDAR RAPIDS   SUNNY     63  33  32 N17       29.87S
$$

...NORTHERN ILLINOIS...


CITY           SKY/WX    TMP DP  RH WIND       PRES   REMARKS
CHICAGO-OHARE  MOCLDY    45  36  70 NE15      29.83R
CHICAGO-MIDWAY CLOUDY    47  35  63 N14       29.84R
MOLINE         SUNNY     62  32  32 NW14G28   29.85R
ROCKFORD       MOCLDY    57  33  40 N13       29.85R
PEORIA         CLOUDY    62  31  31 N13G23    29.84S
$$

NOTE: "FAIR" INDICATES FEW OR NO CLOUDS BELOW 12,000 FEET WITH NO
SIGNIFICANT WEATHER AND/OR OBSTRUCTIONS TO VISIBILITY. WIND
SPEEDS ARE IN MILES-PER-HOUR.




USA.gov is the U.S. government's official web portal to all federal, state and local government web resources and services.